Wind_Speed
3 3 3 3 2 3 2 4 2 2 4 3 1 1 2 3 2 2 2 1 2 2 3 3 5 5 5 7 9 7 4 3 3 3 2 2 6 12 12 14 15 15 15 15 16 16 18 20 20 19 17 17 16 16 15 14 14 13 13 13 13 12 11 10 11 11 12 12 12 12 13 13 13 13 13 14 13 14 13 13 13 14 14 13 13 13 13 13 12 13 14 14 14 15 16 16 16
2 2 1 2 2 2 1 3 3 3 5 3 2 2 2 2 1 3 4 2 4 3 2 8 10 10 10 9 8 7 5 2 0 3 2 1 4 12 14 15 17 16 16 15 15 16 19 21 20 20 19 19 18 18 18 17 15 14 14 14 13 13 13 12 12 12 12 12 12 13 13 13 13 13 13 14 14 14 14 14 14 14 15 14 13 14 13 13 13 13 15 15 14 14 15 17 18
1 1 1 2 2 3 1 4 2 1 4 2 3 3 1 0 3 1 4 6 9 9 5 7 8 6 6 6 4 4 2 2 3 1 3 6 3 9 15 16 18 18 17 16 16 16 18 19 19 20 20 20 19 19 19 18 17 16 15 15 14 14 14 14 13 13 13 13 13 13 13 13 13 13 13 14 14 14 15 15 15 16 16 16 15 15 15 15 14 14 15 15 14 13 14 16 17
1 1 2 1 1 4 4 4 2 4 2 2 2 4 2 4 6 4 3 7 8 5 2 3 5 3 4 6 2 3 2 1 4 0 1 7 5 8 14 17 19 20 19 19 19 19 19 18 17 18 19 19 19 19 19 18 18 17 16 16 15 15 15 15 14 14 14 13 13 13 14 13 13 14 14 14 14 14 15 16 16 16 17 17 17 17 17 16 15 16 16 15 15 14 15 16 16
1 2 3 1 2 2 3 3 2 4 1 4 2 4 5 5 8 6 2 3 3 1 2 3 3 2 3 4 1 2 1 1 4 6 5 5 7 10 15 17 19 21 22 22 21 22 22 20 19 18 18 18 18 18 18 18 18 17 17 17 16 16 15 14 14 14 14 14 13 13 13 13 13 13 14 14 14 14 15 15 15 16 17 17 18 18 18 17 16 16 17 16 15 16 16 17 17
1 3 5 4 2 1 3 2 2 2 3 4 2 4 5 6 7 7 3 2 2 1 1 3 4 3 3 2 2 2 2 2 3 6 6 7 10 13 16 17 18 21 22 22 22 22 23 21 21 21 20 19 19 18 18 18 18 17 17 17 17 16 16 15 14 14 14 13 13 13 13 14 13 13 13 13 13 13 14 15 15 15 16 17 18 19 19 18 18 17 17 17 17 17 18 18 18
2 1 4 4 2 2 3 3 4 2 2 3 2 4 5 5 6 9 6 4 3 4 4 3 6 8 3 0 2 2 2 4 5 7 9 10 13 15 17 17 18 20 20 21 21 21 22 21 21 21 21 21 20 20 19 18 18 18 18 17 17 17 17 15 15 14 14 14 14 13 13 13 14 14 13 13 13 13 13 14 14 15 15 17 18 19 19 19 19 19 19 18 18 18 19 19 19
4 1 1 3 2 4 4 3 3 2 1 2 3 4 4 6 7 7 4 3 2 1 3 3 4 6 0 1 2 1 7 9 11 13 13 14 14 15 16 17 18 19 19 20 21 20 21 21 20 20 20 21 21 21 20 19 18 18 17 17 17 17 17 16 15 15 14 14 14 14 13 13 13 14 14 14 14 14 13 14 14 14 14 15 17 17 18 19 20 20 20 20 20 19 19 19 19
5 3 0 3 2 3 3 2 1 2 3 4 3 3 2 5 6 5 3 2 3 5 5 5 2 3 2 4 3 2 6 12 15 15 15 16 15 15 15 17 18 19 19 20 21 20 21 21 20 20 20 20 20 20 20 19 19 18 17 17 17 17 17 17 16 16 15 15 15 14 13 13 13 13 14 14 14 14 14 14 13 13 14 15 16 17 18 18 19 20 20 21 20 20 20 20 20
4 3 1 2 3 3 2 1 2 2 4 4 4 4 4 5 5 5 5 4 4 7 5 3 3 4 6 5 2 2 7 14 16 16 16 16 15 15 16 17 18 19 20 21 21 21 21 21 21 21 20 20 20 20 20 19 19 18 18 17 17 17 17 17 17 16 16 16 15 15 14 13 13 13 13 13 14 14 14 14 14 14 14 15 17 18 18 18 18 19 20 20 20 20 21 22 22
2 4 2 4 4 2 2 3 3 3 4 4 3 4 5 6 6 4 5 5 3 5 4 2 5 6 7 3 3 4 11 14 15 17 16 17 16 17 17 18 18 19 20 21 22 22 22 21 21 21 21 21 21 21 21 21 20 20 19 19 19 18 18 17 17 17 17 16 16 16 15 15 14 14 13 13 14 14 14 15 15 15 13 14 16 16 18 19 19 19 20 21 21 21 21 22 23
1 3 4 4 3 3 4 4 4 4 5 3 1 3 2 6 6 5 6 6 4 5 4 3 5 6 6 2 3 5 12 14 15 18 16 16 16 16 17 17 18 19 20 20 21 22 22 22 22 22 21 21 21 21 21 21 21 21 20 20 20 20 19 19 19 18 17 17 17 17 17 16 16 16 15 15 15 15 15 15 16 16 14 14 14 14 15 18 19 19 20 20 21 22 22 22 23
3 2 5 3 2 3 3 4 3 2 4 3 4 1 2 5 4 8 8 6 7 7 4 5 7 6 4 3 2 4 10 15 17 18 16 16 16 16 16 16 17 18 19 19 20 21 21 21 21 21 21 21 21 21 21 22 22 21 21 21 21 21 21 20 20 19 19 18 18 18 18 18 18 17 17 17 17 16 16 16 16 16 17 16 16 15 15 16 17 19 20 21 21 22 23 23 23
3 3 5 3 1 3 4 3 1 2 3 5 3 1 2 1 2 5 8 7 6 5 2 2 8 5 2 2 1 3 11 18 19 18 16 16 15 15 16 16 17 17 18 18 19 20 20 21 21 21 21 20 20 20 21 21 21 21 21 21 22 22 22 21 21 21 20 20 19 19 19 19 19 19 19 19 18 19 18 18 17 18 18 18 19 18 18 19 19 20 21 21 22 23 24 24 24
3 2 5 4 1 1 3 2 3 4 5 5 3 3 4 2 2 2 3 7 5 3 1 2 4 2 3 7 5 8 16 22 21 19 18 16 15 15 15 16 17 17 18 18 19 19 19 20 20 20 20 20 20 20 20 20 20 20 21 21 22 22 22 22 22 22 21 21 21 21 20 20 20 20 20 20 20 21 20 20 19 19 20 20 20 20 20 20 20 21 21 20 21 22 24 24 25
3 3 5 3 2 2 3 2 3 3 5 4 2 3 5 2 2 2 3 3 3 1 2 1 1 1 5 6 6 15 25 24 22 20 18 17 15 14 14 16 17 17 17 17 18 18 18 19 19 19 19 20 19 19 19 19 20 20 20 21 21 22 22 22 22 22 22 22 22 22 22 22 22 22 22 22 22 22 22 22 22 21 21 21 21 21 21 21 21 21 21 21 21 22 23 25 26
3 4 5 2 2 4 4 5 5 4 5 4 3 3 6 0 1 2 2 4 5 2 3 1 3 3 2 3 7 25 28 23 23 20 18 15 13 13 13 14 16 17 17 16 17 17 17 18 18 18 18 19 18 18 18 19 19 19 19 20 20 21 22 22 23 23 23 23 23 23 23 23 24 24 24 24 24 23 23 23 23 23 23 23 22 22 22 22 22 22 22 22 22 23 23 24 25
4 3 3 1 3 3 5 8 7 4 4 6 6 5 7 5 3 3 2 6 3 3 4 3 4 5 2 5 17 28 26 23 22 20 17 14 11 11 12 13 15 16 16 16 16 15 16 16 17 17 17 17 17 17 17 18 18 18 19 19 19 20 21 21 22 23 24 24 24 25 25 25 25 25 25 25 25 25 25 25 25 25 25 24 24 24 23 23 23 23 23 23 23 24 24 24 24
4 3 3 2 5 3 4 7 6 2 3 6 4 4 6 6 6 5 3 1 1 3 1 4 3 3 4 10 19 23 23 22 20 19 17 14 12 12 12 13 14 15 15 15 14 14 14 15 15 15 16 16 16 16 16 17 17 17 18 18 19 19 20 21 22 22 23 24 24 24 25 26 26 26 26 26 26 26 26 26 26 26 26 26 26 26 25 24 24 24 24 24 24 24 24 24 24
2 4 3 4 6 4 4 6 7 4 3 6 3 2 3 4 6 4 4 4 3 6 5 2 3 5 6 8 14 19 20 19 18 17 15 14 13 13 14 13 13 13 13 13 13 13 13 13 14 14 14 14 15 16 16 16 16 16 16 17 18 18 19 20 21 22 23 23 24 24 25 25 26 26 27 27 28 28 28 28 27 28 28 28 29 29 28 27 26 26 25 25 25 25 25 25 26
2 4 3 5 3 1 4 6 6 3 3 5 3 2 1 3 4 4 7 6 4 8 10 10 11 13 12 8 12 17 17 17 17 16 15 15 14 13 14 13 13 12 12 11 11 11 12 12 12 12 13 13 14 15 16 16 16 16 16 17 17 18 18 19 19 20 21 22 23 23 24 24 25 26 27 28 29 29 30 30 29 29 29 29 30 31 31 30 29 29 28 27 27 27 27 27 27
1 1 3 5 3 0 3 4 3 2 5 5 4 3 3 3 2 5 10 7 6 6 9 10 10 15 16 13 14 15 15 15 16 17 16 16 15 14 13 13 12 11 10 9 10 10 10 11 11 11 11 12 13 14 15 15 15 16 16 17 18 18 19 19 19 20 21 21 22 22 23 24 25 26 27 28 29 30 30 31 31 30 30 30 30 31 31 31 31 31 31 30 29 29 29 29 28
1 2 1 4 4 1 2 2 3 4 6 5 5 4 4 5 3 4 9 10 6 4 7 8 8 13 17 16 14 12 12 13 16 18 17 17 16 14 13 12 12 10 9 8 8 9 9 9 9 9 10 11 12 12 13 13 14 14 15 16 17 18 19 19 20 21 21 21 21 22 23 24 25 26 27 27 28 29 30 31 31 31 31 31 30 30 31 31 30 31 31 31 31 31 31 30 29
4 1 1 2 4 3 2 0 2 4 5 6 4 2 5 7 5 2 8 11 3 4 4 9 13 15 16 13 12 11 13 14 16 18 17 17 16 14 13 12 12 10 8 8 8 8 8 8 8 8 9 10 10 11 11 11 12 12 13 14 16 17 18 19 20 20 21 21 21 21 22 23 24 25 26 27 28 29 29 29 29 29 30 31 31 31 31 31 30 30 30 31 32 32 32 32 32
4 1 2 1 3 5 2 0 1 4 4 3 4 3 5 8 4 2 10 11 1 1 4 10 13 14 12 11 11 11 12 14 16 17 16 16 15 14 12 11 11 11 9 9 8 7 7 7 7 7 7 8 9 10 10 10 11 11 13 14 15 16 17 18 19 20 20 21 21 21 21 21 22 23 25 26 27 27 27 27 27 27 28 30 31 32 31 31 31 31 30 30 31 32 32 32 33
1 3 3 2 2 4 1 3 4 4 3 1 5 5 5 3 2 3 9 7 4 5 7 9 11 12 11 10 10 11 10 13 16 17 16 16 15 14 13 12 12 11 10 9 8 7 6 6 6 6 7 8 8 9 9 10 11 11 12 13 15 16 17 18 19 20 20 20 20 19 18 18 20 21 23 25 26 25 25 25 26 26 27 28 30 31 32 32 33 33 32 31 30 31 32 32 32
2 3 4 3 3 4 1 4 4 2 3 3 6 5 4 2 1 5 5 5 6 8 8 8 11 11 11 9 9 11 11 15 18 18 16 16 15 15 15 14 13 12 10 8 8 6 5 5 5 5 6 7 7 8 9 10 10 11 11 12 14 15 17 18 19 20 20 19 19 19 18 19 21 22 23 25 25 24 24 24 24 24 25 26 27 28 30 31 33 34 33 32 31 31 31 31 31
1 1 3 4 4 3 1 2 2 1 2 4 6 4 3 1 2 6 4 6 7 10 10 9 10 10 10 9 8 9 11 16 20 18 17 17 18 18 17 15 14 13 10 9 8 6 4 4 4 4 5 6 7 7 8 8 9 10 10 11 13 14 16 17 18 19 19 20 19 19 20 22 23 24 25 25 25 25 24 25 25 24 25 25 25 27 29 30 32 33 33 33 32 32 32 31 30
1 2 2 7 7 4 0 1 2 3 3 5 5 4 4 5 7 4 4 7 6 9 10 9 9 8 8 8 7 7 11 16 17 17 19 19 19 18 17 15 15 14 11 9 8 5 4 3 3 3 5 5 6 6 7 7 8 8 9 11 12 14 15 16 17 18 19 20 20 20 21 23 24 25 26 26 27 26 25 26 27 26 26 25 26 28 29 29 29 31 33 33 33 33 32 31 30
1 2 2 4 8 5 1 1 2 4 3 4 3 4 6 10 11 4 6 9 8 8 9 9 9 7 7 8 7 7 11 14 15 18 20 19 18 18 17 16 15 14 12 10 7 5 4 3 2 2 4 4 5 5 6 6 7 8 9 10 11 13 14 15 17 18 19 20 21 21 22 24 25 26 27 27 27 25 25 25 26 26 26 27 28 29 28 28 28 29 30 32 34 33 33 33 31
0 2 2 3 3 4 4 0 4 4 2 2 4 3 8 9 9 6 8 10 12 11 10 10 9 8 8 8 8 8 10 14 16 19 20 19 19 18 18 18 17 15 13 11 8 6 6 4 3 2 3 3 4 4 5 6 7 8 9 10 11 12 14 15 17 18 20 21 22 23 24 26 26 26 26 26 26 24 24 24 24 25 26 28 29 29 28 27 27 28 28 30 33 33 34 34 32
3 2 3 3 0 5 8 3 5 4 1 2 5 3 9 9 7 6 9 9 11 12 11 11 10 10 10 8 9 8 8 13 18 21 21 20 20 20 20 19 18 16 14 12 8 8 7 5 3 2 3 3 4 4 6 6 7 8 9 11 11 13 14 15 16 19 20 22 23 24 26 27 27 26 26 26 26 26 25 24 24 24 26 27 28 28 28 28 28 29 28 28 31 33 34 35 34
4 1 3 4 2 4 6 3 2 2 1 1 3 3 7 8 4 3 7 9 10 9 10 11 12 12 11 9 9 8 8 10 14 20 23 23 22 21 21 20 19 18 15 12 10 10 8 6 3 1 3 3 4 4 5 6 8 9 10 11 12 13 15 15 16 19 21 22 23 25 26 27 26 26 27 28 28 28 27 26 26 26 27 28 28 27 27 29 30 30 29 26 29 32 33 34 34
4 2 1 4 3 3 5 4 3 2 2 3 4 5 10 12 4 4 8 10 10 10 11 13 12 11 10 9 9 9 9 10 11 19 25 24 23 22 22 21 19 18 15 12 10 10 8 5 2 2 3 4 4 4 6 7 9 10 11 12 13 14 15 15 16 19 21 22 23 24 25 26 26 27 28 29 29 30 29 29 29 29 29 29 29 28 28 29 30 29 31 30 29 31 33 33 32
4 3 2 3 3 4 5 6 3 2 1 5 4 6 13 18 10 6 9 10 12 14 13 12 12 11 10 9 10 10 11 12 13 20 25 26 25 24 23 21 20 19 16 13 11 9 7 4 2 2 3 4 4 5 7 8 10 11 12 13 14 16 16 15 17 21 22 22 22 23 25 26 26 27 28 29 30 31 31 31 31 31 31 30 30 29 29 29 29 28 30 32 31 31 32 34 34
7 5 4 4 5 6 6 6 4 1 2 7 8 9 12 17 16 8 9 11 13 13 12 10 9 9 10 10 11 11 13 13 14 21 25 26 27 25 24 22 21 20 17 14 12 10 6 4 1 2 3 4 4 6 7 9 11 12 13 14 15 17 16 16 19 21 21 21 22 23 25 26 27 28 29 30 31 31 31 31 31 30 30 29 29 29 29 28 28 27 28 30 31 31 31 32 33
5 4 3 6 6 7 6 4 4 1 1 9 9 9 12 15 18 13 7 10 12 12 12 12 10 10 11 12 13 14 15 12 13 20 24 26 28 26 25 24 23 21 18 15 13 10 6 3 0 2 3 4 5 6 7 9 10 12 13 14 16 18 17 18 20 21 20 21 22 24 26 27 28 29 30 31 31 31 31 30 30 29 28 27 27 27 27 26 24 25 27 28 29 30 30 27 26
3 3 4 5 5 8 8 3 4 1 3 7 6 7 13 14 16 15 6 9 13 14 14 15 13 12 11 14 17 16 12 8 10 16 21 26 28 27 26 25 25 24 20 17 13 9 6 4 1 2 3 4 5 6 7 9 10 11 12 13 16 17 16 17 19 20 20 21 23 25 27 27 28 29 30 31 31 30 29 29 29 28 27 26 26 25 24 24 24 25 27 29 29 30 30 27 25
3 2 1 4 4 5 8 4 4 2 3 5 7 7 13 15 15 18 14 11 12 13 15 16 14 14 13 14 16 15 12 10 11 13 18 25 28 28 27 27 27 25 21 18 13 9 7 5 3 2 4 4 5 6 7 9 10 11 13 14 15 15 15 16 18 19 19 21 24 25 26 27 28 28 29 29 29 28 28 28 28 27 27 26 26 27 27 27 29 29 28 29 30 31 30 28 25
3 3 2 5 4 1 5 4 5 3 3 4 9 10 12 13 12 17 17 11 11 11 13 13 12 14 16 16 15 15 16 15 14 13 15 22 26 28 27 27 28 25 21 18 14 10 8 6 4 3 4 5 5 6 8 10 11 12 14 15 15 15 16 15 16 18 19 21 24 25 26 27 27 27 27 26 26 26 26 27 28 28 28 28 29 30 32 31 31 30 29 28 28 29 29 28 25
3 5 6 6 5 5 6 4 5 4 3 3 6 10 9 6 8 13 8 4 8 8 9 11 11 13 13 12 13 15 16 15 16 15 15 18 23 26 28 28 28 26 23 19 14 11 8 7 4 4 5 6 6 7 9 10 12 14 15 17 18 18 19 19 20 22 23 24 26 27 27 27 27 27 27 26 26 26 26 26 27 28 29 29 29 30 32 32 31 29 28 27 25 25 28 30 28
4 5 10 10 8 7 4 4 5 4 4 4 5 7 7 1 4 10 5 4 8 4 7 11 11 10 10 11 13 13 13 13 15 15 15 18 22 24 27 28 28 28 24 19 14 10 8 7 5 4 5 6 7 8 9 11 12 14 16 18 19 19 20 21 22 24 26 27 28 29 28 28 28 28 28 28 28 29 28 28 28 29 29 28 28 29 31 32 31 28 26 26 26 26 27 30 30
3 4 7 7 4 2 2 2 3 1 4 3 3 2 8 2 2 8 8 7 9 8 9 11 9 9 10 12 12 11 12 13 13 13 14 17 21 23 24 27 30 28 24 19 14 11 9 7 5 5 6 6 7 8 9 11 13 14 16 16 16 16 17 19 21 22 24 26 27 28 28 28 28 28 29 29 30 30 30 30 30 30 30 29 29 30 31 32 32 31 29 29 30 29 28 29 30
4 4 5 6 5 4 4 2 1 3 3 4 2 4 8 8 5 9 9 8 10 13 15 12 9 10 12 13 12 12 14 14 13 14 15 17 21 24 24 28 31 28 24 20 15 12 9 8 6 6 6 7 7 8 9 11 13 14 15 16 17 17 18 21 23 23 24 25 26 28 28 28 28 27 28 29 31 31 31 31 30 30 31 31 31 31 33 33 34 34 32 31 31 30 28 28 29
5 4 6 6 6 5 4 4 3 2 3 5 4 5 5 9 5 3 3 5 9 13 17 14 10 11 12 13 13 13 13 13 13 15 15 17 23 26 27 29 31 28 24 21 16 12 10 8 7 6 7 7 7 8 10 11 12 14 15 16 18 20 20 22 24 25 25 25 26 28 28 29 29 28 29 30 31 32 32 31 31 31 32 33 32 32 33 33 33 33 32 30 29 28 27 27 30
3 6 6 5 5 4 4 3 2 2 2 9 7 7 5 8 4 2 2 3 9 12 13 11 8 9 11 12 12 12 10 10 12 14 14 19 25 27 27 30 30 28 25 20 15 13 11 9 8 7 7 7 7 9 10 11 13 14 15 17 19 21 23 24 25 27 27 27 28 29 29 30 31 31 31 32 32 33 32 32 32 32 33 33 33 33 33 34 34 34 34 33 31 32 33 32 34
5 6 5 5 5 4 3 1 3 3 5 10 7 12 8 6 3 6 4 5 9 9 8 8 7 7 8 9 10 10 10 10 11 11 12 17 23 25 27 28 29 28 25 20 16 14 13 10 8 8 7 6 7 9 10 12 13 14 16 17 19 21 23 24 25 27 28 28 29 30 31 32 33 34 34 34 34 33 33 33 33 33 33 33 34 35 35 36 36 36 36 36 36 36 37 36 35
5 4 4 3 4 3 4 4 4 0 7 6 3 7 8 8 7 5 6 7 8 9 7 7 8 9 8 8 8 9 10 10 10 10 11 13 17 21 24 25 27 28 25 20 18 15 14 11 9 9 7 6 8 9 11 12 14 15 16 18 19 20 22 23 24 26 27 28 29 30 31 33 35 36 36 36 36 35 35 35 34 34 34 34 35 37 37 37 37 37 36 37 37 36 36 35 36
5 4 4 3 3 3 3 3 1 3 7 3 0 2 5 11 11 8 9 11 10 9 9 8 8 9 8 7 8 8 8 9 10 10 11 12 13 16 20 22 25 27 26 22 19 16 15 12 9 9 8 6 8 10 11 13 14 15 17 18 19 20 20 22 23 25 27 27 29 30 32 34 36 38 37 37 38 37 36 36 36 36 36 37 37 38 38 38 37 37 37 37 38 38 37 37 38
5 5 4 4 2 0 3 4 2 5 7 3 2 2 3 9 9 12 17 17 14 11 9 8 8 9 8 7 7 7 8 9 10 10 11 12 13 16 20 22 24 27 27 23 19 17 15 11 8 8 7 7 8 10 11 13 14 15 16 17 18 19 20 22 23 25 27 28 29 30 32 34 36 38 39 39 40 39 38 38 37 38 39 39 38 38 38 38 37 37 38 39 39 40 38 37 38
4 5 5 5 5 4 5 4 4 7 6 3 2 2 4 5 4 7 13 12 11 9 7 6 7 8 5 5 6 7 8 9 8 9 11 12 14 18 21 23 25 27 27 23 19 17 15 10 8 7 7 7 8 10 11 13 14 15 16 17 18 19 20 22 23 25 26 28 30 31 33 34 35 39 41 42 41 41 41 41 39 39 40 40 40 39 39 39 37 37 39 40 41 41 39 39 39
2 3 4 3 5 5 3 3 4 1 5 4 3 4 7 4 5 6 5 6 8 7 5 6 9 7 3 5 7 7 8 8 8 10 11 12 15 19 21 23 25 27 27 23 19 18 15 9 7 7 7 7 8 10 11 13 14 15 16 18 18 20 21 23 25 26 27 28 30 32 34 35 36 38 41 42 42 42 42 42 41 41 41 41 41 40 39 39 38 38 40 41 42 41 39 40 42
2 3 4 5 4 5 2 3 1 4 2 6 2 5 9 5 7 8 5 6 9 6 6 9 10 6 4 7 8 7 8 9 10 11 11 12 14 18 22 23 25 26 25 22 20 17 13 8 7 6 6 7 8 10 11 12 14 16 17 18 19 20 22 23 25 27 28 29 30 32 34 36 36 37 39 42 43 43 43 42 43 44 43 42 41 40 39 38 37 38 40 41 41 40 39 41 41
5 3 5 3 2 4 3 1 3 3 3 6 3 9 13 9 7 2 5 6 11 8 9 12 9 5 6 9 9 8 8 8 10 10 10 11 13 17 21 23 26 27 25 22 19 16 11 7 6 6 6 7 8 10 11 12 14 16 17 19 20 21 22 24 25 27 29 30 32 32 33 35 37 38 39 40 41 43 44 43 43 43 43 42 41 40 39 37 37 38 40 41 41 39 39 41 40
5 3 3 2 3 2 2 2 2 2 3 6 8 10 13 10 9 5 4 9 9 9 10 11 10 9 9 10 9 8 7 8 9 10 10 10 12 17 21 23 25 26 24 21 18 14 10 7 6 6 6 7 9 10 11 12 14 16 17 19 20 21 22 24 25 27 29 30 32 33 34 35 36 37 38 39 40 42 44 43 42 42 42 41 40 39 37 37 38 39 39 41 40 38 39 41 40
2 1 2 1 2 4 3 3 3 3 3 6 7 10 14 10 7 7 9 10 10 9 9 10 12 12 11 10 9 8 8 10 10 10 11 11 13 17 22 24 25 24 22 21 18 13 9 7 6 6 6 7 9 9 11 13 14 16 18 19 20 21 23 24 25 26 28 30 31 33 34 35 36 37 37 38 39 40 41 41 40 40 41 40 40 39 37 36 37 37 38 39 38 36 36 38 37
5 3 3 2 1 2 1 2 2 4 4 4 3 7 17 10 5 8 9 8 10 11 9 11 12 11 11 10 9 8 9 11 10 11 11 11 12 16 21 24 25 24 22 21 17 12 9 7 6 5 6 7 8 9 11 13 15 16 18 19 21 22 23 24 25 26 28 30 31 32 33 34 35 36 36 37 38 38 37 38 39 39 38 38 39 38 36 34 33 33 33 33 33 31 32 33 33
8 8 8 8 6 4 1 4 3 3 4 5 4 6 18 11 5 6 7 7 9 10 11 12 9 9 11 10 10 11 10 11 11 11 11 10 11 15 20 22 23 23 22 20 15 11 9 7 6 6 6 7 8 10 11 13 15 16 18 20 22 23 23 24 25 26 27 29 30 31 32 33 34 35 34 34 35 36 36 36 37 38 37 36 37 36 34 32 31 31 31 30 29 29 30 31 31
Wind_Direction
151 143 154 141 131 134 53 60 80 339 71 81 326 94 231 241 214 173 114 43 73 6 311 70 63 65 96 112 126 126 81 108 159 140 175 208 73 44 48 51 46 48 46 48 49 51 52 45 37 35 37 35 34 33 31 30 30 28 25 19 17 12 6 2 354 349 343 339 331 324 320 317 314 309 305 302 295 288 282 279 279 281 285 287 292 296 297 302 306 304 304 305 304 304 306 307 305
145 140 124 131 98 122 228 69 93 343 53 72 283 160 245 297 52 174 184 137 120 161 141 88 81 75 90 110 118 93 46 4 163 145 82 99 101 47 53 56 52 54 52 54 53 55 55 48 42 40 42 43 43 41 40 38 36 35 30 27 23 20 16 10 6 2 356 353 349 342 336 331 324 318 313 309 306 301 296 290 284 281 282 282 283 286 288 295 299 299 300 302 303 304 305 304 304
116 144 85 139 64 52 82 42 86 63 68 103 263 245 281 144 102 118 185 147 141 160 147 92 86 69 80 79 58 73 67 306 16 159 43 46 82 41 56 64 62 64 63 65 63 62 58 52 48 45 46 47 48 46 46 45 44 41 35 32 28 25 21 16 13 8 5 2 360 357 353 346 337 332 327 320 315 310 305 299 292 287 287 283 281 283 284 287 291 291 294 296 298 297 294 294 297
340 356 348 178 63 34 64 41 127 117 97 180 240 258 236 173 139 110 164 156 160 165 151 82 71 8 78 83 34 78 100 256 14 84 85 38 50 53 64 70 70 72 71 72 72 70 64 59 56 52 50 50 49 48 48 47 47 44 41 38 33 29 25 21 18 13 12 8 5 5 4 358 349 346 341 335 328 322 315 307 301 297 297 293 287 286 284 285 285 286 288 290 292 293 290 289 290
349 23 356 106 91 48 93 74 110 96 201 186 148 251 241 193 144 135 196 188 209 230 176 103 93 302 70 88 105 116 146 218 47 72 97 64 78 79 75 77 76 75 73 73 74 75 70 67 65 61 58 54 52 50 49 49 47 46 43 40 37 33 29 25 22 18 15 10 7 5 5 3 359 355 351 349 340 333 325 316 311 305 303 300 296 293 290 286 284 283 284 286 289 291 290 289 287
66 70 35 61 88 123 118 97 107 91 215 170 128 240 228 196 144 137 138 76 40 30 113 89 127 142 69 37 70 112 227 178 93 78 91 94 93 88 83 81 80 77 73 72 73 75 73 71 70 68 66 62 59 57 54 52 49 48 45 43 40 37 34 30 26 23 18 13 7 3 2 1 0 358 356 355 349 344 337 328 322 315 310 306 305 302 297 291 287 285 283 283 286 290 288 286 285
111 86 25 61 44 34 101 128 155 154 185 162 169 209 205 198 151 133 131 106 64 16 42 93 128 114 83 237 74 33 52 120 115 104 109 108 102 94 89 85 83 79 73 71 71 73 73 72 71 69 67 66 63 61 59 57 54 51 48 46 44 41 37 33 30 26 21 17 12 7 2 360 0 359 356 354 351 349 344 339 335 328 319 311 309 306 303 300 296 292 289 286 285 286 285 284 284
94 80 2 85 33 27 88 111 171 182 170 224 225 201 202 198 164 131 139 151 148 62 96 145 115 91 56 85 116 53 77 109 117 114 116 111 108 101 92 88 84 78 72 70 69 70 71 70 69 68 66 64 63 61 59 57 55 53 50 47 45 42 39 35 32 29 25 21 17 13 8 5 3 359 357 353 349 346 344 343 341 336 327 318 315 311 306 305 302 298 297 295 291 286 283 283 282
69 42 32 81 70 40 56 55 202 212 262 264 239 216 186 183 163 121 129 131 136 147 166 197 139 102 161 89 124 220 94 121 125 117 116 112 110 104 95 87 81 77 72 68 66 65 65 65 64 63 62 61 60 59 57 55 53 51 49 46 44 41 37 34 32 29 27 24 21 17 12 9 5 3 360 356 349 343 339 337 335 332 327 323 322 320 314 310 307 302 301 300 298 293 287 284 282
49 24 140 77 79 59 31 228 235 226 248 260 252 219 163 170 155 124 134 136 140 147 186 201 99 122 140 126 161 182 134 138 129 120 117 114 109 102 95 86 80 76 72 67 65 63 62 61 59 58 57 56 56 55 54 52 50 48 46 43 41 38 34 30 28 27 25 24 22 19 14 12 8 4 360 355 350 345 340 333 327 323 325 328 326 324 321 316 311 306 303 301 299 296 293 291 286
40 355 92 77 76 117 191 199 248 255 267 292 277 244 181 163 134 104 110 128 137 139 179 127 102 136 122 141 221 157 150 149 136 128 122 114 108 101 94 86 82 76 73 69 66 64 62 60 58 57 55 54 53 53 51 49 48 45 43 41 39 36 33 29 27 24 22 21 19 17 14 13 9 5 1 355 351 348 344 339 333 328 327 331 330 328 325 319 315 311 307 303 298 294 293 294 290
86 334 65 86 123 181 195 169 226 262 309 324 215 275 168 144 132 142 140 142 150 145 202 184 149 143 115 175 230 159 156 158 147 135 126 117 108 99 92 86 83 78 74 70 67 65 61 60 58 57 55 53 51 51 50 48 46 44 42 39 37 34 32 29 27 24 22 20 17 15 12 10 9 5 2 358 354 349 346 342 339 338 333 327 323 323 324 320 316 312 308 304 299 294 291 290 290
121 147 87 95 152 154 152 145 219 281 321 268 184 291 116 145 175 175 152 137 152 158 234 211 157 121 120 196 213 163 164 163 153 139 132 120 109 100 92 86 82 79 75 70 67 63 60 58 56 55 53 51 49 48 48 47 44 43 41 38 37 34 31 29 26 24 21 20 17 15 13 10 8 5 2 359 356 352 348 345 342 342 338 332 325 319 318 315 310 305 303 302 299 295 291 288 286
135 155 104 110 94 118 143 134 215 167 243 249 205 206 119 155 209 167 135 135 177 179 247 188 147 124 121 171 197 202 175 165 154 144 137 123 114 105 93 87 84 81 76 70 67 62 59 56 54 53 50 48 47 45 44 44 42 40 39 38 36 33 31 29 26 24 21 20 17 15 12 10 8 6 3 0 357 353 349 346 344 343 340 337 333 328 322 317 311 308 307 307 304 299 294 290 286
132 138 88 111 63 91 165 169 165 156 218 235 190 156 92 35 95 106 128 147 199 230 65 111 144 173 178 169 202 200 173 164 154 146 138 127 122 111 97 88 84 82 77 71 66 61 57 54 53 52 49 47 45 44 43 42 41 39 38 36 35 33 31 30 27 25 22 20 18 15 12 9 7 5 3 1 359 356 352 348 345 343 339 336 335 332 328 323 320 317 313 311 309 304 297 291 287
117 111 69 99 123 162 184 172 132 138 230 227 189 142 99 12 71 108 268 145 156 338 51 165 274 306 182 197 207 170 163 160 154 149 140 132 127 117 105 90 83 81 77 72 66 59 55 52 51 51 49 47 44 44 42 40 39 36 36 35 34 32 31 29 28 26 24 22 19 16 13 10 7 4 2 359 358 356 354 351 348 345 341 336 333 331 328 326 323 321 317 313 309 306 301 294 289
65 79 66 80 152 193 189 172 167 169 226 230 220 180 123 131 5 145 286 73 120 66 32 244 310 353 194 251 162 154 157 158 156 153 147 144 137 125 113 97 85 78 74 71 66 59 54 50 48 48 47 46 43 43 40 38 36 34 32 32 31 30 29 28 27 26 24 22 20 17 15 12 9 6 3 360 357 355 354 352 350 347 344 339 335 330 326 325 324 322 319 316 312 308 304 299 294
54 85 75 64 176 197 179 180 195 172 189 200 201 183 143 164 187 168 77 45 66 73 17 341 351 6 48 115 138 148 155 159 161 159 160 161 155 135 115 101 87 78 75 72 68 61 53 50 47 45 44 43 41 41 38 36 33 31 30 28 28 27 26 26 25 24 22 21 19 17 15 13 11 8 6 2 359 356 354 352 350 348 345 341 338 333 328 325 323 322 320 318 315 312 308 305 302
81 113 60 273 204 203 191 179 192 185 172 181 201 181 170 190 165 154 156 175 176 134 326 343 21 26 85 123 136 148 156 161 164 164 166 166 160 141 118 108 96 84 79 76 72 63 56 52 49 46 45 42 40 39 35 33 31 29 28 26 26 25 24 23 22 21 20 19 17 16 14 12 9 8 6 4 1 357 354 352 350 347 344 342 340 336 332 328 324 321 320 319 317 314 312 311 310
138 113 69 251 217 223 225 182 195 230 168 155 199 162 177 215 153 155 167 166 208 195 201 183 187 191 161 150 146 152 160 165 168 166 164 158 149 137 128 122 111 97 85 83 79 68 60 55 54 51 47 44 40 38 34 32 30 27 26 25 24 22 21 20 19 18 17 16 14 13 12 10 7 6 4 2 0 357 354 353 350 348 344 343 340 337 334 332 328 322 319 319 318 318 316 315 314
131 107 139 232 202 218 230 195 210 231 139 146 160 108 203 225 150 162 145 140 243 237 214 197 191 180 172 177 163 159 164 169 174 176 168 152 141 137 132 125 118 106 93 91 84 71 60 54 54 53 49 45 39 35 34 31 29 27 26 25 23 22 20 18 17 15 14 13 12 10 9 7 6 4 2 359 358 355 353 351 349 348 344 342 341 339 336 334 332 328 323 320 320 320 319 317 316
68 91 179 214 159 245 241 198 210 152 103 100 120 166 199 159 155 179 160 178 226 230 226 211 190 173 170 172 168 164 166 171 178 182 171 152 144 139 133 127 124 113 101 96 87 73 58 53 52 52 49 43 38 34 33 31 29 27 26 25 23 23 22 21 19 18 16 15 13 11 8 7 5 2 360 357 355 352 349 348 346 345 343 341 341 338 336 334 332 330 327 323 321 320 318 317 315
48 313 245 209 180 229 264 191 204 145 119 138 168 198 148 136 248 203 184 217 225 242 236 196 176 173 165 158 162 167 171 178 181 182 170 155 149 140 135 133 130 123 113 104 96 81 63 58 55 56 52 43 39 37 36 34 32 30 28 26 23 22 22 22 21 21 19 18 16 14 11 7 4 0 357 354 351 348 345 344 342 341 340 339 338 336 334 333 331 329 327 324 321 319 317 315 313
79 21 311 188 184 217 256 163 168 151 169 197 175 131 147 184 232 159 206 233 251 295 237 160 154 158 156 155 166 174 176 182 182 179 168 157 151 140 137 135 136 139 131 122 116 97 77 71 68 68 58 46 41 40 40 37 35 33 30 28 23 21 21 22 21 21 20 19 18 17 13 8 4 358 354 350 346 343 342 342 341 340 338 336 335 333 331 330 329 327 324 322 320 319 317 315 313
73 150 258 177 195 238 262 47 165 188 218 211 141 162 202 202 183 156 228 235 218 59 124 132 140 145 157 167 174 178 179 185 184 178 170 161 154 149 147 144 149 152 147 140 130 107 89 80 79 77 58 46 41 41 42 39 38 34 30 26 21 19 21 22 21 21 20 20 19 18 14 7 2 355 350 346 343 342 341 341 341 339 336 334 333 331 330 328 326 324 322 318 317 317 316 315 313
177 168 218 234 259 279 256 208 221 215 240 144 163 222 262 233 178 247 238 210 146 119 119 133 143 152 170 175 179 181 181 189 188 182 175 168 164 164 162 161 164 162 155 144 131 114 93 84 88 77 51 42 39 41 40 38 36 32 29 24 19 19 21 21 21 22 21 21 20 17 12 4 359 354 351 351 348 345 343 342 340 338 335 333 332 329 328 326 324 322 320 316 314 312 312 312 311
188 175 213 228 275 294 213 213 239 217 258 206 191 242 288 306 263 253 241 169 146 128 132 156 157 167 177 178 187 184 187 192 189 185 178 178 179 177 174 174 174 166 157 145 135 123 101 93 94 68 45 42 38 39 37 35 33 29 26 21 18 19 20 20 20 21 21 20 19 14 8 3 359 359 357 356 354 350 347 343 339 336 333 332 331 327 325 322 321 320 318 315 312 309 307 307 307
157 229 263 292 324 316 148 229 264 142 245 192 177 250 288 17 251 240 208 162 158 144 154 175 172 178 180 180 189 186 196 195 189 185 183 186 187 184 183 181 176 169 158 150 145 133 115 108 97 60 43 43 40 40 37 35 31 26 22 19 17 18 18 18 19 19 19 18 16 12 7 4 2 2 359 356 356 354 348 342 337 333 330 328 326 323 320 318 317 316 315 314 311 308 305 303 302
143 59 326 308 355 18 93 242 219 166 208 176 156 281 261 205 232 244 156 157 152 149 166 180 182 186 184 187 191 194 201 194 190 190 187 185 184 184 184 180 175 169 161 157 154 143 129 120 104 55 48 49 45 43 37 34 27 21 18 15 14 15 15 16 18 18 17 17 14 11 6 3 3 2 360 358 357 354 347 342 339 336 333 329 325 323 321 318 315 313 312 312 311 309 305 302 300
213 47 57 320 360 5 259 78 139 159 192 177 146 293 255 220 235 230 149 156 143 158 182 187 192 192 191 195 194 203 206 198 195 193 190 183 181 182 178 175 173 170 166 165 160 151 152 148 132 66 59 56 51 46 36 30 21 15 12 11 10 9 11 13 16 16 16 15 12 10 5 2 3 1 360 358 356 351 345 342 340 338 334 329 327 326 325 321 317 312 311 310 309 308 305 303 300
352 348 50 18 2 294 284 324 159 166 205 156 130 270 261 249 251 208 172 168 158 175 196 191 197 198 196 202 199 207 210 205 203 197 192 185 181 179 176 174 172 172 171 169 164 160 170 171 159 95 67 59 53 40 26 21 11 8 6 6 4 2 6 10 13 14 13 12 9 7 4 1 1 359 359 356 353 350 344 341 338 335 331 328 328 328 327 325 322 316 313 310 307 306 304 302 299
27 339 313 343 7 275 300 290 186 194 299 122 139 242 270 269 263 207 176 178 176 185 198 196 202 203 200 204 203 209 214 212 210 204 196 188 184 180 177 177 174 176 175 172 169 169 178 181 169 104 61 51 42 26 15 10 1 1 0 360 358 356 1 7 11 12 10 8 5 4 1 359 358 357 356 354 351 349 345 340 336 333 329 328 328 328 327 325 324 319 315 310 306 303 302 300 298
3 44 262 282 269 296 316 323 239 225 139 171 189 234 277 274 267 214 180 183 194 199 204 205 207 206 205 206 205 208 211 215 217 213 204 193 189 184 179 180 178 178 177 174 173 174 184 184 170 75 50 37 28 17 3 359 355 355 355 356 353 351 356 2 8 9 8 5 3 2 359 357 356 354 353 352 350 348 346 341 338 335 332 330 329 327 326 324 324 322 318 314 307 302 300 297 295
324 13 261 257 246 274 303 307 327 49 155 225 231 230 259 265 246 178 192 191 197 210 212 211 211 209 207 207 208 211 209 211 214 212 207 197 191 186 182 182 181 179 179 177 177 180 188 183 160 52 37 24 16 3 353 351 351 351 352 352 348 347 352 357 3 7 6 3 2 359 355 354 353 352 350 349 348 347 345 343 340 338 335 333 330 326 324 323 323 322 318 316 309 302 297 295 293
242 259 259 280 271 240 256 274 299 49 232 235 228 239 257 268 265 198 196 198 202 215 217 214 213 208 208 210 211 213 213 215 211 207 204 196 190 186 183 182 182 181 180 179 181 185 186 179 137 44 21 12 4 351 349 347 347 347 347 347 345 345 348 351 0 4 4 2 359 355 352 351 351 349 348 347 346 345 344 343 341 339 336 332 328 324 321 321 320 318 314 312 309 300 293 292 293
193 207 201 241 270 260 234 238 264 360 296 258 235 237 254 268 274 246 199 201 212 221 225 222 213 207 209 213 215 214 217 219 209 204 202 196 190 186 182 182 183 183 182 182 184 187 184 174 116 34 5 356 350 343 344 342 345 345 343 343 340 343 345 349 358 2 1 360 355 350 348 349 349 347 346 345 344 343 342 341 337 335 333 329 324 319 317 316 315 313 311 308 306 299 291 288 290
149 158 195 235 244 271 255 227 285 8 233 265 243 237 254 261 270 267 207 197 224 226 229 230 211 207 211 210 217 216 218 217 202 205 204 195 191 187 184 183 183 182 182 185 185 186 187 178 132 14 354 345 338 335 339 338 342 343 340 336 335 340 344 347 354 357 356 355 351 347 346 347 346 345 344 343 342 341 339 336 333 330 328 324 318 313 311 308 306 306 307 306 304 301 296 290 289
108 177 233 270 232 258 270 252 312 333 178 267 268 249 256 254 265 273 224 192 225 220 221 230 213 210 215 211 219 218 216 206 194 208 205 195 192 189 188 186 184 183 183 186 186 186 189 192 218 343 341 331 329 326 329 334 337 339 334 329 330 336 342 344 348 352 351 350 348 345 345 345 343 342 342 340 338 336 333 330 327 325 323 320 315 311 307 302 300 301 304 304 303 300 297 295 294
112 151 201 278 246 271 291 311 355 348 179 269 288 274 262 256 259 266 252 222 232 223 216 226 214 210 216 214 218 215 209 202 196 207 203 197 195 192 192 190 188 189 186 185 186 187 192 200 223 301 326 320 321 318 323 329 334 336 331 329 330 333 339 341 344 351 349 345 344 343 342 341 340 339 338 336 333 330 327 325 323 321 320 318 315 311 306 303 302 302 302 301 301 298 295 294 295
157 157 180 258 265 297 285 308 345 298 227 271 287 280 264 255 251 259 258 242 245 237 223 227 215 212 218 215 215 209 205 204 200 203 199 196 196 195 197 193 190 191 187 185 186 190 197 202 224 277 312 314 315 316 322 328 332 335 332 332 335 335 336 336 341 349 346 339 339 338 338 337 335 333 331 329 326 323 321 320 320 319 317 316 315 310 307 305 303 302 300 297 297 298 296 294 293
246 202 203 240 255 234 235 290 328 311 305 318 306 292 271 241 237 254 273 289 268 244 222 235 225 220 226 221 220 214 208 205 200 200 196 193 196 198 199 195 191 190 188 187 188 193 199 204 224 271 301 310 314 319 324 328 332 334 334 337 341 341 339 338 342 345 340 335 334 334 334 333 330 328 327 325 322 320 318 318 318 316 315 315 313 309 306 304 302 299 297 293 291 293 297 297 293
292 232 211 226 241 245 259 330 349 350 321 335 8 318 284 199 219 259 285 302 277 243 211 236 231 221 226 226 224 216 211 208 203 201 195 192 196 197 199 197 192 191 190 188 190 195 201 206 226 268 296 309 316 323 326 329 332 334 338 341 341 339 336 337 340 339 334 331 330 330 330 329 327 325 325 324 323 321 318 318 317 315 314 313 310 306 303 301 299 296 293 290 288 287 292 295 293
291 250 202 208 207 211 265 346 359 297 263 300 52 297 272 265 187 255 262 262 272 270 247 243 234 220 219 225 224 211 208 207 203 201 194 194 195 194 199 198 192 191 190 187 190 198 203 209 229 266 295 310 317 324 326 328 332 335 339 338 334 330 326 328 332 330 325 324 324 324 323 323 322 321 322 322 322 321 318 317 316 315 312 309 306 302 298 297 295 292 290 287 286 284 283 284 287
242 228 130 129 133 159 186 127 245 243 277 299 178 181 273 278 236 244 252 259 275 275 267 259 238 223 221 226 223 211 208 203 199 198 194 195 195 195 196 194 193 192 188 186 190 199 204 212 231 266 294 307 314 322 325 328 333 335 336 333 329 329 326 325 327 325 322 320 319 319 318 317 318 318 318 320 321 320 318 316 314 312 310 306 304 300 297 297 295 294 292 288 285 281 276 275 280
238 193 119 110 123 149 149 133 226 278 9 295 220 156 275 273 243 266 287 256 261 263 263 261 244 225 225 227 222 215 211 203 199 199 195 195 195 196 193 190 192 191 187 187 192 199 204 213 235 266 289 301 312 320 324 329 333 333 332 330 328 330 329 325 325 323 322 321 317 315 315 315 316 316 316 318 319 319 317 314 312 310 307 305 302 299 297 297 296 294 293 290 285 279 274 273 277
197 137 101 72 77 81 85 121 183 44 341 267 229 165 240 272 223 160 69 219 239 249 256 260 252 231 224 226 222 215 210 203 203 200 196 196 196 195 191 188 191 190 187 189 191 196 204 214 238 266 286 300 312 319 324 329 332 331 332 332 331 330 327 325 326 324 323 321 316 314 315 315 316 316 317 317 317 316 315 312 310 307 304 302 299 297 296 295 294 291 289 287 282 279 277 274 274
134 107 71 39 42 51 49 66 82 48 274 268 235 180 197 278 239 175 184 206 207 219 245 264 267 253 231 224 219 210 206 202 200 199 195 194 194 193 190 189 189 187 186 188 191 197 204 215 241 269 286 301 312 320 325 329 331 331 333 334 331 328 325 325 324 321 320 318 314 313 314 314 315 316 317 316 315 314 312 310 307 304 302 299 296 295 295 294 292 290 288 285 282 279 277 275 273
112 87 61 23 345 18 19 356 49 47 255 273 274 186 190 247 248 203 226 242 211 198 220 242 251 258 242 223 217 208 204 200 192 191 189 184 188 193 191 188 186 184 184 188 193 199 205 215 242 270 286 303 313 322 326 327 331 333 334 334 329 325 322 322 319 315 314 313 311 311 312 314 316 316 315 314 313 312 311 308 305 302 299 296 295 294 293 292 291 288 286 285 283 279 276 275 273
100 94 81 57 326 350 343 313 95 228 251 262 267 177 214 246 246 230 238 251 236 214 218 229 244 258 247 221 217 211 199 195 191 188 186 183 187 191 188 185 183 183 187 191 195 199 204 215 242 269 286 305 316 322 326 327 330 333 333 330 324 320 320 319 316 311 310 309 309 310 312 314 314 313 311 310 310 310 308 305 303 301 298 296 295 294 292 291 289 286 285 283 281 279 276 274 271
148 147 132 141 143 62 273 273 278 269 271 264 184 163 255 271 258 227 224 232 228 221 226 230 241 256 250 226 213 208 201 196 192 189 188 190 191 189 184 182 182 184 189 192 196 199 204 216 241 266 284 306 316 320 324 326 328 330 329 324 319 319 320 319 314 310 309 308 308 309 310 311 310 308 308 307 307 308 306 303 301 299 297 297 295 294 292 290 287 285 283 282 281 278 276 273 270
172 154 136 159 159 168 222 232 244 273 292 275 226 185 234 266 284 223 221 235 237 235 249 255 259 260 252 234 213 206 206 198 191 192 192 194 190 185 183 182 184 187 190 192 195 199 204 218 241 263 284 304 315 318 322 324 325 326 324 319 319 321 321 317 312 309 307 307 309 309 309 308 306 305 305 306 306 306 305 303 301 300 299 298 296 294 292 289 287 284 283 282 281 278 275 272 269
196 126 117 185 186 169 208 213 194 245 322 284 223 221 232 238 287 258 236 257 248 244 270 273 265 258 227 230 224 210 207 195 190 194 194 194 188 185 184 183 185 189 190 193 196 199 204 219 241 259 281 299 311 316 319 320 321 322 320 318 323 325 322 317 312 309 308 309 310 309 307 306 304 304 305 305 306 306 305 304 303 301 299 299 297 294 292 290 287 284 284 283 281 278 275 271 269
163 144 176 216 185 133 143 265 32 67 304 273 233 254 273 302 289 255 206 229 241 244 259 251 254 250 210 229 227 211 207 195 193 197 193 189 185 187 187 184 186 188 189 193 196 198 205 218 238 255 278 296 308 313 314 317 319 317 317 321 327 326 322 316 312 311 312 312 310 308 306 305 305 304 305 305 306 306 305 304 303 302 300 299 298 295 292 290 287 284 283 282 280 278 275 271 270
133 183 212 197 131 95 106 237 342 34 251 272 282 268 279 289 284 291 119 202 241 241 240 246 254 244 222 236 233 212 205 195 195 198 192 188 187 189 187 184 186 187 190 195 194 195 205 219 237 255 276 292 305 309 311 316 317 314 318 325 327 325 321 316 314 313 314 312 310 309 307 305 305 305 305 305 305 305 305 304 303 302 302 300 298 297 292 289 288 284 282 282 280 278 275 272 269
132 201 224 126 143 168 116 154 233 245 233 270 283 283 278 256 250 269 186 200 228 235 236 247 250 237 229 238 233 209 196 193 196 196 190 190 191 188 185 183 184 186 190 192 189 191 202 215 233 254 274 292 302 306 313 318 315 315 322 326 326 323 320 317 316 316 314 312 310 310 308 306 305 306 305 304 304 305 305 304 303 302 302 300 298 297 293 290 289 285 282 282 280 276 274 271 270
82 282 310 13 167 177 164 154 179 184 201 264 291 299 281 249 210 237 227 198 203 217 228 239 239 232 226 230 226 202 195 200 197 196 194 191 192 188 182 179 180 185 188 186 186 191 198 211 227 249 273 287 299 309 315 314 314 321 325 326 325 323 321 319 318 316 313 311 310 309 308 307 306 305 305 305 305 304 303 303 302 301 301 300 298 296 294 292 289 285 283 282 280 276 271 270 270
170 201 226 236 173 112 206 218 143 142 180 237 272 281 276 266 165 209 222 187 193 202 212 233 235 229 225 225 219 202 201 206 198 196 195 188 187 184 179 178 180 183 184 182 186 191 194 210 226 247 272 288 304 313 311 310 318 325 325 325 326 324 323 321 318 316 314 312 311 309 307 307 306 305 306 305 304 303 302 302 302 301 299 298 297 295 294 292 286 284 284 282 280 277 271 269 269
176 194 197 194 173 122 203 246 212 160 185 206 180 252 273 273 141 188 208 176 193 200 212 232 229 220 226 223 216 207 203 206 200 194 191 183 181 179 176 177 178 177 178 179 184 190 194 208 225 249 275 296 307 308 309 316 324 328 328 329 328 325 324 320 317 317 315 313 312 310 309 308 307 307 307 305 303 303 303 302 300 300 297 294 294 293 292 290 285 283 283 282 281 278 275 273 269
Height
793 793 794 793 793 793 796 798 809 820 823 838 844 840 834 831 833 830 829 829 832 838 837 834 833 832 832 834 842 847 849 850 850 849 849 855 856 853 853 850 849 847 845 844 842 841 839 839 839 838 837 835 834 833 833 832 832 831 831 830 830 829 829 829 828 828 827 827 827 827 826 826 826 826 826 825 824 824 824 824 824 824 825 825 825 825 825 825 824 824 824 824 823 823 822 821 821
793 794 793 793 793 793 801 803 814 829 828 839 845 839 833 829 832 829 829 831 834 839 837 835 835 837 838 841 844 845 849 853 852 851 852 855 853 853 852 849 849 846 845 844 842 841 839 840 839 838 837 836 835 834 833 832 832 831 831 831 830 830 829 829 828 828 827 827 827 826 826 825 825 825 825 825 824 823 824 824 823 823 823 823 823 823 824 824 823 823 823 823 822 822 822 821 821
793 794 794 793 794 795 803 804 816 832 829 836 839 835 832 827 830 830 831 832 833 836 836 834 835 840 842 843 843 844 851 853 851 852 853 853 853 853 851 850 849 847 846 843 842 841 840 840 839 838 836 836 835 834 834 833 832 832 831 831 830 830 829 829 828 828 827 827 826 826 825 825 825 825 825 824 824 823 823 823 823 822 822 822 821 822 822 822 822 822 822 822 821 821 821 821 820
794 794 794 793 797 798 804 812 822 827 828 840 838 830 829 825 830 833 833 833 835 835 834 834 837 843 842 843 846 848 851 852 852 851 852 853 853 853 852 851 849 847 845 843 842 841 840 840 838 837 836 836 835 834 834 833 833 832 832 831 831 830 830 829 828 828 827 827 826 826 825 825 824 824 824 823 823 823 823 823 822 822 822 821 821 820 820 820 820 820 820 820 820 820 820 820 819
794 794 794 793 799 802 809 824 831 825 826 836 833 828 826 824 829 833 834 835 836 835 833 833 838 844 843 846 849 849 852 852 852 850 852 854 853 853 852 850 849 847 845 844 842 841 840 839 839 837 836 836 835 834 834 833 833 832 832 831 831 830 830 829 828 828 827 827 826 826 825 825 824 823 823 823 823 823 822 822 822 821 821 821 820 819 819 819 819 819 819 819 819 819 818 818 818
794 794 794 793 800 804 810 823 827 825 826 829 826 825 823 822 829 832 834 835 835 835 833 833 836 842 847 850 850 850 851 851 851 851 852 853 853 852 851 850 848 846 844 844 842 841 840 839 839 837 837 836 835 835 834 833 832 832 832 831 831 830 830 829 829 828 827 827 826 825 825 825 824 824 823 823 823 822 822 821 821 821 820 820 819 819 818 818 817 817 817 817 817 817 817 817 817
794 795 797 798 804 807 813 821 825 826 828 830 826 821 820 822 829 831 832 833 833 834 834 836 836 838 847 850 850 851 850 850 850 851 852 852 853 851 851 849 847 845 844 843 842 841 840 839 839 838 837 836 836 834 834 833 833 832 831 831 831 830 830 829 829 828 827 827 826 825 825 824 824 823 823 822 822 821 821 821 820 820 819 819 818 818 817 817 816 816 816 816 816 816 816 816 815
793 798 803 803 811 818 823 827 829 831 829 831 828 822 821 822 827 828 829 831 832 835 836 838 837 836 845 850 850 852 850 850 850 850 852 851 852 851 850 848 846 845 844 843 842 841 840 839 838 838 837 836 836 835 834 833 833 832 831 831 830 830 830 829 829 828 827 826 826 825 824 824 823 822 822 821 821 820 820 820 819 818 818 818 817 817 817 816 816 815 815 815 815 814 814 814 814
794 799 805 807 816 824 829 832 832 833 828 827 824 821 822 824 825 825 826 830 832 836 837 838 837 835 844 850 850 852 850 850 850 850 851 850 851 850 849 847 846 845 844 843 842 841 840 839 838 838 837 836 836 835 834 833 833 832 832 831 830 830 829 829 828 828 827 826 826 825 824 823 823 822 821 820 820 819 818 818 817 817 817 816 816 816 816 815 815 814 814 814 813 813 813 813 812
797 801 806 811 819 826 831 833 832 830 826 824 821 818 821 823 823 823 825 828 832 834 837 837 837 838 843 849 851 850 850 850 850 850 850 850 850 849 848 847 846 845 844 843 842 841 839 839 838 837 837 836 835 835 834 834 833 832 832 831 831 830 829 829 828 828 827 826 826 825 824 823 823 822 821 820 819 819 818 817 816 816 815 815 816 815 815 814 814 813 813 812 812 812 812 811 811
801 805 807 814 822 826 827 828 829 827 825 824 820 817 820 822 820 824 826 828 833 834 835 835 836 842 845 849 849 848 849 850 849 849 849 849 849 848 848 847 846 844 843 843 841 841 840 839 838 837 837 836 835 835 834 834 833 833 832 831 831 830 829 829 828 827 827 826 826 825 824 823 823 822 821 820 819 819 818 817 816 815 815 815 815 814 814 813 812 812 811 811 810 810 810 810 809
803 810 809 813 822 825 825 827 828 826 825 823 818 817 821 823 819 822 825 827 831 832 833 831 832 839 844 849 848 847 848 848 848 848 849 849 848 847 847 846 845 844 842 842 841 840 840 839 838 837 837 836 835 834 834 834 833 832 832 831 831 830 829 829 828 827 827 826 825 825 824 823 822 821 821 820 819 818 817 816 815 815 814 814 813 813 812 811 810 810 809 809 808 808 808 808 808
804 812 807 814 831 832 830 830 830 829 826 821 818 819 822 821 817 819 823 826 830 830 830 830 831 835 841 847 846 846 847 847 847 847 848 847 846 846 846 846 844 843 842 841 840 840 839 838 838 837 836 836 835 834 834 833 833 832 832 831 830 830 829 828 828 827 826 825 825 824 823 823 822 821 820 819 818 817 816 815 815 814 813 813 812 811 811 810 809 808 808 807 807 806 806 806 806
803 810 807 821 842 837 833 832 832 832 824 818 817 820 822 821 820 822 822 825 830 830 829 831 832 832 838 846 845 845 845 844 846 845 847 846 846 846 846 845 844 842 842 841 840 839 839 838 837 837 836 835 834 834 833 833 832 832 831 831 830 830 829 828 827 826 826 825 824 823 823 822 821 821 820 819 818 817 816 815 814 813 812 812 811 810 809 808 808 807 807 806 805 805 804 804 803
803 810 811 824 838 833 833 832 831 830 820 815 817 818 821 824 826 826 824 824 829 832 831 831 832 830 832 836 836 838 840 842 844 844 845 845 846 846 845 845 843 842 841 840 839 839 838 837 837 836 835 835 834 833 833 832 832 831 831 830 830 829 828 828 827 826 825 824 824 823 822 821 820 820 819 818 817 816 815 814 813 812 811 811 810 809 808 807 807 806 805 804 804 803 802 801 800
805 808 811 820 830 830 830 832 834 831 819 814 819 819 819 826 828 826 827 827 828 832 831 831 832 831 831 829 827 832 837 840 842 843 844 844 846 845 845 844 842 841 840 839 839 838 838 837 837 836 835 834 834 833 832 832 831 831 830 829 829 828 828 827 826 825 825 824 823 822 821 820 819 818 818 817 816 815 814 813 812 811 810 809 808 808 807 806 805 804 803 803 802 801 800 799 798
805 806 811 817 826 826 824 830 831 823 814 813 820 818 816 823 828 827 829 829 828 832 833 833 834 832 832 830 828 831 836 839 841 842 843 844 845 844 844 843 841 840 839 839 838 838 837 836 836 835 835 834 834 833 832 832 831 830 829 829 828 827 827 826 825 824 823 823 822 821 820 819 818 817 816 815 815 814 813 812 812 811 810 808 807 806 805 805 803 802 802 801 800 799 798 797 796
804 811 816 816 824 822 816 821 821 814 809 811 816 816 814 818 825 827 828 829 832 833 834 835 834 833 833 831 831 833 836 838 840 840 842 843 843 843 842 841 840 839 839 838 838 838 837 836 836 835 835 834 834 833 832 831 830 830 829 828 827 827 826 825 824 823 822 822 821 820 819 818 817 817 816 815 814 813 812 811 810 810 809 807 806 805 804 803 802 801 800 798 797 797 796 794 793
808 816 818 817 820 817 813 815 816 814 809 809 814 816 816 814 820 825 824 829 833 831 833 837 835 834 834 833 833 833 835 837 838 839 840 841 842 841 840 839 839 838 838 838 838 837 837 836 835 835 834 834 833 833 832 831 830 829 829 828 827 826 825 824 823 822 822 821 820 819 818 817 816 816 815 814 813 812 811 810 809 808 807 806 805 804 803 801 800 799 798 796 795 794 793 792 791
811 815 815 815 815 813 814 814 812 813 811 810 813 817 819 817 820 822 822 828 833 827 827 831 832 833 833 833 833 833 835 836 837 838 839 840 839 838 838 837 838 837 838 838 838 837 836 836 835 835 834 834 833 833 832 831 830 829 828 827 826 826 824 824 823 822 821 820 819 818 817 816 815 814 813 813 812 811 810 808 807 806 805 804 803 802 800 799 798 797 795 794 793 792 790 790 789
811 812 813 814 815 813 811 812 812 813 815 812 813 817 818 819 822 822 822 826 829 824 819 818 820 826 830 831 833 833 834 835 836 837 838 837 836 836 835 835 836 836 837 837 837 836 836 835 835 835 834 834 833 832 832 831 830 829 828 827 826 826 824 823 823 822 821 819 818 817 816 815 814 813 812 811 810 809 808 807 806 805 804 803 801 800 798 797 796 794 793 792 791 790 788 788 787
810 813 815 816 817 813 809 812 813 814 817 815 815 815 814 820 821 821 820 816 814 815 814 814 816 820 823 826 830 831 833 833 834 835 835 833 833 834 834 834 835 835 836 836 836 835 835 835 834 834 834 833 833 832 832 831 830 829 829 828 827 826 825 824 823 822 821 820 819 817 816 814 813 812 811 810 809 808 806 805 804 803 802 801 800 799 797 796 794 793 791 790 789 788 787 786 785
809 813 817 818 817 813 809 812 813 814 814 812 814 814 816 820 817 819 819 808 807 812 812 813 817 820 821 823 827 829 831 831 832 832 832 831 832 832 833 833 834 834 835 835 835 835 835 835 834 834 834 833 833 832 832 831 831 830 829 829 828 827 826 825 824 822 821 820 819 817 816 814 813 812 811 809 808 807 806 804 803 801 801 800 799 798 796 795 794 792 790 789 787 786 785 784 783
809 811 814 817 817 812 811 812 813 815 811 811 816 815 816 816 813 819 816 807 809 813 812 812 815 820 822 824 826 827 828 829 830 830 830 831 831 831 832 832 832 833 835 835 836 835 835 835 835 834 834 833 833 832 832 831 830 830 829 829 828 827 826 825 823 822 821 820 818 817 815 814 813 811 810 809 807 806 805 803 802 801 799 798 798 797 795 794 792 791 790 788 786 784 783 781 780
810 812 812 815 816 812 813 814 812 814 812 816 818 814 814 815 816 817 809 805 811 813 812 814 816 820 823 823 825 826 827 828 828 829 830 830 830 831 831 831 832 833 834 835 835 835 835 834 834 834 833 833 832 831 831 830 830 829 828 828 827 826 825 824 823 821 820 819 817 816 815 814 813 811 810 808 806 805 804 802 801 800 799 798 796 795 794 792 790 789 788 787 785 783 781 780 778
812 812 812 813 812 811 813 812 811 813 814 816 815 812 815 819 819 811 802 806 812 813 814 815 817 819 821 822 823 824 826 827 827 828 828 829 829 829 830 830 831 833 834 834 834 833 833 833 833 832 832 831 831 830 830 829 829 828 827 827 826 825 824 823 821 820 818 817 816 816 815 814 813 811 810 808 806 804 803 801 800 799 798 797 796 794 793 791 789 787 786 785 784 782 780 779 777
812 813 813 813 813 814 814 811 812 816 815 815 813 811 815 821 820 805 801 811 813 813 816 817 817 818 820 821 822 823 824 825 825 826 827 827 827 827 828 829 830 831 832 832 832 832 832 832 832 831 830 830 829 829 828 828 827 827 826 825 825 824 822 821 820 818 817 816 815 815 814 813 812 810 808 807 805 803 801 800 799 798 797 796 795 793 792 790 788 786 785 783 782 780 778 777 776
812 812 811 812 813 813 816 813 814 817 814 813 814 813 816 822 817 801 801 813 813 812 816 818 818 818 819 820 822 823 823 823 824 824 824 823 824 825 826 827 828 829 830 830 831 831 831 831 830 830 829 828 828 827 827 827 826 826 825 824 823 822 821 820 818 817 815 814 813 813 812 811 810 808 807 805 803 801 800 799 798 797 795 794 793 792 790 789 787 785 783 782 780 778 776 775 774
813 813 809 808 808 808 814 814 814 816 811 811 814 812 812 814 807 799 806 813 813 815 816 818 818 818 819 820 821 822 821 821 821 821 820 821 822 824 825 826 827 827 828 829 829 829 829 829 829 828 828 827 827 826 826 826 825 825 823 823 822 821 820 818 817 815 813 812 812 811 810 809 808 806 804 803 801 800 799 797 796 795 793 793 791 790 788 787 785 783 781 779 778 776 774 772 771
812 814 813 811 809 807 812 815 816 815 811 811 814 811 803 800 798 802 811 813 813 816 816 818 818 818 820 819 820 820 820 819 818 818 818 820 821 822 823 824 825 826 827 827 827 827 827 829 828 827 827 826 826 825 825 824 824 823 822 821 820 819 818 816 815 813 811 810 809 809 808 807 805 804 802 801 800 798 797 796 794 793 792 791 789 788 786 784 783 781 780 777 775 774 771 770 769
813 814 818 823 818 809 810 816 814 811 812 811 813 814 800 790 794 803 812 811 811 812 814 817 816 817 818 818 819 817 817 816 816 817 817 818 819 820 821 822 823 824 825 825 826 826 827 828 827 826 826 825 824 824 823 823 822 821 820 819 818 817 816 814 813 811 809 808 807 807 806 805 803 802 801 800 799 797 796 794 793 792 791 789 788 786 785 783 781 779 778 776 773 772 770 768 767
818 815 815 827 824 813 810 814 815 809 811 813 812 813 802 790 793 803 811 811 809 808 811 814 814 815 815 815 816 815 815 815 815 815 815 817 817 818 819 820 821 822 823 824 824 826 826 827 826 825 823 823 822 822 821 821 820 819 818 817 816 816 814 813 811 809 807 806 805 805 803 803 802 801 800 799 797 796 794 793 792 790 789 788 785 784 783 781 779 777 776 775 771 769 768 766 765
824 822 816 820 822 819 813 812 816 812 809 812 810 809 799 790 794 805 811 811 810 808 809 812 811 812 813 813 813 813 814 813 813 813 812 814 815 816 817 818 820 820 822 822 823 824 825 825 823 822 821 820 820 820 820 819 818 818 816 815 814 814 812 811 809 806 804 804 803 803 802 801 800 799 798 797 795 793 792 791 789 788 786 785 783 782 781 779 777 775 773 774 772 769 767 765 763
822 827 822 822 823 823 817 810 814 815 811 810 810 810 800 787 791 804 809 809 810 807 806 807 808 809 810 811 812 811 811 810 809 808 809 811 813 814 816 817 818 819 820 821 821 822 822 822 821 819 819 818 818 818 818 817 816 815 814 813 812 812 810 809 807 803 802 801 801 801 800 800 799 797 796 794 793 791 790 788 786 785 783 782 780 779 778 777 776 774 772 772 772 770 767 764 763
818 822 820 823 826 825 822 814 813 814 812 811 812 810 801 789 787 797 804 807 807 802 800 801 803 807 808 809 809 808 808 806 804 805 807 809 811 813 814 815 816 817 818 818 820 820 820 819 818 817 817 816 817 816 816 815 814 813 812 811 811 809 808 807 804 799 799 799 799 799 799 798 797 795 794 792 790 788 787 785 784 782 781 779 778 777 776 775 774 774 773 770 771 770 767 765 762
816 820 821 823 824 822 820 816 814 815 814 811 811 809 801 791 785 787 797 805 803 798 798 798 800 804 806 806 806 805 804 801 801 804 806 807 809 811 812 813 814 815 816 816 817 818 817 817 816 815 815 815 815 814 814 813 812 811 810 809 809 808 806 805 801 797 797 798 798 798 797 796 794 793 792 790 788 786 784 783 782 781 780 779 777 776 775 774 774 773 773 771 769 767 766 765 762
819 821 824 824 826 821 814 813 816 819 816 807 806 808 802 794 786 782 789 799 799 798 797 795 797 799 800 802 801 800 799 798 801 804 804 806 807 809 810 811 812 813 814 814 815 815 815 814 814 814 813 813 813 812 812 811 810 809 808 808 807 805 803 801 798 796 796 796 796 796 794 793 791 790 789 787 785 784 783 782 781 780 779 778 777 775 774 774 774 773 772 770 768 764 762 762 761
820 821 823 824 828 822 811 814 819 820 819 808 804 807 801 793 786 779 784 790 788 789 790 787 790 793 794 795 795 794 795 798 801 802 802 804 805 806 807 808 809 810 810 811 812 812 812 812 812 812 811 811 811 810 810 809 808 807 807 806 805 803 801 799 797 794 794 795 795 794 792 791 789 788 787 785 784 783 782 781 780 779 778 777 775 774 773 772 772 772 770 767 765 763 759 758 759
820 824 826 823 824 820 812 817 822 822 820 809 805 808 799 790 787 778 775 778 775 776 779 777 780 786 788 788 787 789 793 796 797 798 799 800 801 803 804 805 806 806 807 808 808 809 809 809 809 809 809 809 809 809 808 807 806 806 805 804 803 801 799 797 795 793 792 792 792 792 790 789 788 787 786 785 783 782 781 780 778 777 776 775 773 770 770 769 768 768 768 765 762 759 756 754 756
820 823 825 819 819 820 812 815 822 821 819 814 811 807 792 784 784 774 768 769 769 769 771 772 774 776 776 778 780 783 786 789 791 793 795 796 798 799 800 801 803 804 804 804 805 806 807 807 807 807 808 808 807 807 806 805 804 804 803 802 801 799 797 795 793 790 790 790 790 789 788 787 786 785 784 783 782 781 780 778 776 774 773 772 770 767 765 765 765 764 764 764 762 757 751 750 751
819 821 821 815 814 817 815 819 822 818 817 821 814 790 771 776 779 769 766 770 767 766 768 769 770 770 770 773 775 777 779 782 785 788 790 792 794 795 796 798 799 800 801 801 802 804 804 805 805 805 806 806 806 805 804 803 802 801 800 799 797 796 794 793 790 787 787 787 787 786 786 785 784 783 782 781 780 778 776 775 773 771 770 768 767 765 762 761 762 762 761 760 760 757 751 746 745
816 814 814 812 810 814 819 823 822 815 811 819 817 788 764 771 777 767 766 766 761 762 765 763 765 768 770 770 770 772 775 778 780 782 785 788 790 792 793 795 796 796 797 798 800 801 802 802 803 803 804 804 803 803 802 801 800 799 797 795 794 794 793 790 788 786 785 785 784 784 783 783 782 781 780 779 777 775 773 771 770 768 766 765 764 763 760 759 758 758 758 757 756 756 753 746 741
816 812 814 816 816 818 821 821 821 816 813 818 822 808 782 769 765 759 758 759 755 756 756 755 760 765 766 764 764 767 771 773 776 779 782 784 786 788 789 790 791 792 794 795 797 798 799 800 800 801 801 801 801 800 800 799 798 797 795 794 794 793 791 789 787 786 785 784 783 781 781 780 780 778 777 776 774 772 770 768 767 765 763 762 761 760 757 756 755 754 754 753 751 751 751 746 739
812 817 820 817 817 819 819 822 822 820 824 822 819 819 803 779 767 758 754 757 759 755 750 749 754 758 759 759 759 762 764 766 770 773 776 779 781 782 784 785 787 789 791 792 794 795 796 797 798 799 799 799 798 798 797 796 795 794 792 792 792 791 789 787 785 784 783 782 781 779 778 777 777 776 774 772 770 769 767 765 764 762 760 759 758 756 754 752 750 749 748 748 747 746 746 744 739
810 823 825 820 821 822 823 825 824 829 833 817 811 822 810 778 765 766 764 765 762 751 741 739 743 749 752 754 755 756 758 761 765 767 770 773 776 777 779 782 785 786 788 789 791 793 794 795 796 796 797 796 796 795 794 794 792 791 791 790 789 787 786 785 783 781 780 779 778 776 776 774 773 772 770 769 767 765 764 762 761 759 757 756 754 752 750 748 746 745 744 743 742 741 741 741 737
816 827 826 825 828 828 830 827 823 831 828 803 799 815 803 765 749 763 771 767 758 744 733 732 736 742 746 748 750 752 756 759 761 763 766 769 771 775 777 780 782 783 785 786 788 790 791 792 793 793 794 793 793 792 791 790 790 789 788 787 785 784 783 782 780 778 778 777 775 774 772 770 768 767 765 764 764 762 761 759 758 756 754 753 751 748 746 744 743 741 739 739 738 736 735 736 734
822 822 817 818 826 832 837 834 828 825 805 787 793 803 798 773 748 751 755 745 738 733 729 731 731 733 739 744 747 749 752 755 757 760 764 767 771 774 776 777 779 780 782 784 786 788 789 790 791 791 791 791 790 789 788 787 787 786 785 783 782 782 781 780 778 776 775 774 773 771 769 766 764 762 761 760 760 759 758 756 754 752 751 749 746 744 742 740 738 736 734 733 732 731 729 729 727
819 813 810 811 817 823 828 829 829 816 788 786 806 809 803 781 747 740 741 730 728 725 720 721 722 724 731 739 745 746 748 751 754 758 761 766 770 772 774 774 775 777 779 781 783 784 786 787 788 788 788 788 787 786 785 784 784 783 782 781 780 781 780 778 776 775 774 773 770 768 765 762 759 758 757 756 755 755 754 752 750 748 746 744 742 740 737 735 733 731 729 727 725 725 723 723 720
815 813 815 817 818 817 813 812 815 807 789 797 816 811 797 769 736 734 736 727 727 725 720 719 719 721 726 735 742 744 747 749 751 755 757 761 765 766 769 770 771 774 775 778 780 781 783 784 785 785 784 785 784 783 782 782 781 780 779 779 779 779 778 776 775 773 772 771 768 765 762 759 756 754 753 752 751 751 750 747 745 743 741 739 737 735 732 730 729 726 724 722 720 718 717 716 714
815 811 812 814 819 818 808 807 809 798 788 802 815 803 780 749 724 724 724 716 718 721 722 723 722 724 726 732 740 742 745 747 748 752 754 756 759 761 764 766 768 770 772 775 777 779 780 781 782 782 781 782 781 780 780 779 778 778 777 778 778 777 775 774 773 772 770 768 766 763 760 757 754 751 749 748 747 746 745 743 741 738 736 734 731 729 727 725 724 721 718 716 714 712 711 710 707
814 809 809 806 805 803 794 793 793 784 783 800 811 792 758 729 714 715 716 715 717 718 722 726 726 730 733 734 738 741 742 744 746 750 751 752 755 757 760 762 764 767 769 772 774 776 777 778 778 779 778 778 778 778 777 777 776 776 776 776 775 774 773 771 771 770 768 766 763 760 757 756 753 750 746 744 743 742 739 737 736 733 730 728 726 724 722 719 718 716 713 710 707 706 705 703 700
813 815 811 803 795 790 789 795 798 800 800 799 796 774 740 723 716 715 720 718 716 719 724 727 725 729 736 735 735 738 740 742 745 746 748 750 752 755 756 758 761 764 766 769 771 773 774 775 776 776 776 776 776 775 775 775 775 775 774 774 773 771 770 769 768 767 765 763 760 757 755 753 751 748 744 741 739 737 735 732 729 727 725 723 720 718 716 714 712 710 707 704 701 700 699 695 694
808 813 801 801 802 791 788 801 814 821 807 783 774 759 733 723 714 710 720 718 715 723 724 722 722 728 734 732 731 735 737 739 741 741 744 746 750 752 753 755 758 760 764 766 768 770 771 772 773 773 774 774 774 774 774 774 773 773 773 771 770 769 768 767 765 764 762 759 757 755 753 750 748 745 742 738 735 732 730 728 724 721 719 717 714 712 711 708 707 704 701 698 695 694 693 689 687
802 802 794 799 805 798 795 802 807 814 806 779 765 752 734 726 716 709 719 717 713 721 720 717 722 728 730 727 727 732 734 736 739 739 742 744 747 749 750 752 755 757 761 763 765 768 768 770 770 771 772 772 772 773 772 772 772 771 770 768 767 767 765 765 763 760 758 756 754 752 750 747 744 742 739 735 732 728 725 723 720 716 713 711 709 706 705 703 701 698 695 692 689 688 686 682 681
798 796 797 796 792 793 801 805 797 798 803 780 757 748 730 715 709 704 707 709 706 711 714 716 718 721 724 723 724 730 732 735 736 736 739 741 743 745 746 749 752 755 759 761 763 765 766 767 768 769 770 770 771 771 770 770 770 769 768 766 765 765 763 762 760 757 756 753 751 749 747 744 741 739 736 732 729 725 721 719 716 713 709 706 704 702 700 698 696 692 689 686 683 683 680 675 674
804 799 801 797 790 789 793 800 795 788 790 776 759 749 714 686 692 693 693 702 703 702 706 707 708 713 718 718 720 726 729 730 732 732 735 737 739 742 744 746 750 753 756 759 761 763 764 766 767 767 769 769 769 769 768 769 768 766 765 764 763 762 760 759 757 755 753 751 749 746 743 741 738 735 732 729 726 722 719 715 712 709 705 702 700 697 695 693 690 686 684 680 677 676 673 669 667
795 795 796 796 795 797 793 796 796 785 783 779 773 759 706 670 683 686 685 698 699 697 700 696 698 707 713 715 716 721 725 725 727 728 730 733 737 740 742 745 748 751 754 757 759 761 762 764 765 766 767 767 767 767 767 767 766 764 763 762 760 759 757 756 754 753 751 748 746 744 741 738 735 732 729 726 722 719 716 713 709 705 702 699 696 693 690 689 685 681 679 675 672 670 667 664 662
774 775 777 779 783 792 790 788 791 787 781 771 771 763 709 669 680 684 684 694 693 693 694 689 695 703 706 712 713 715 719 719 722 724 726 731 735 737 741 743 746 749 751 755 757 759 761 762 764 764 765 765 765 765 765 764 763 762 761 759 757 756 755 753 752 750 748 746 743 741 739 735 731 728 726 723 719 716 713 710 706 702 698 695 692 689 687 684 681 677 674 671 668 665 662 659 657